,,Stat5,,Stat1,,Stat2,,Stat3,,Stat4,,Wind1,,Wind1,
time,status,PA1M_AVG,status,PR1M_SUM,status,RH1M_AVG,status,SR1M_AVG,status,TA1M_AVG,status,W1dAve1m,status,W1sAve1m,
2002-04-27, 00:00:01,VALID,915.664,VALID,0,VALID,97.6986,VALID,0,VALID,21.4141,VALID,9,VALID,0,
2002-04-27, 00:01:00,VALID,915.664,VALID,0,VALID,97.677,VALID,0.0169808,VALID,21.4074,VALID,9,VALID,0,
2002-04-27, 00:02:01,VALID,915.663,VALID,0,VALID,97.644,VALID,0.0169808,VALID,21.4012,VALID,8,VALID,0.215495,
2002-04-27, 00:03:00,VALID,915.653,VALID,0,VALID,97.5753,VALID,0.0169808,VALID,21.3821,VALID,17,VALID,0.323568,
2002-04-27, 00:04:01,VALID,915.65,VALID,0,VALID,97.5893,VALID,0,VALID,21.388,VALID,44,VALID,0.564631,
2002-04-27, 00:05:00,VALID,915.659,VALID,0,VALID,97.5867,VALID,0,VALID,21.392,VALID,22,VALID,0.472762,
2002-04-27, 00:06:01,VALID,915.645,VALID,0,VALID,97.4977,VALID,0.0169808,VALID,21.3621,VALID,19,VALID,0.488982,
2002-04-27, 00:07:00,VALID,915.63,VALID,0,VALID,97.5117,VALID,0.0169808,VALID,21.3656,VALID,16,VALID,0.683705,
2002-04-27, 00:08:00,VALID,915.608,VALID,0,VALID,97.4914,VALID,-0.0169808,VALID,21.3489,VALID,10,VALID,0.759079,
2002-04-27, 00:09:00,VALID,915.596,VALID,0,VALID,97.4075,VALID,0,VALID,21.3468,VALID,9,VALID,0.69351,
2002-04-27, 00:10:01,VALID,915.589,VALID,0,VALID,97.4303,VALID,0,VALID,21.3269,VALID,6,VALID,0.39403,
2002-04-27, 00:11:00,VALID,915.58,VALID,0,VALID,97.4621,VALID,0,VALID,21.3368,VALID,357,VALID,0.347155,
2002-04-27, 00:12:00,VALID,915.577,VALID,0,VALID,97.5092,VALID,0.0169808,VALID,21.3368,VALID,357,VALID,0.238982,
2002-04-27, 00:13:00,VALID,915.565,VALID,0,VALID,97.5359,VALID,-0.0169808,VALID,21.3368,VALID,357,VALID,0.250206,
2002-04-27, 00:14:01,VALID,915.558,VALID,0,VALID,97.574,VALID,0,VALID,21.3172,VALID,357,VALID,0.169271,
2002-04-27, 00:15:00,VALID,915.541,VALID,0,VALID,97.5893,VALID,0,VALID,21.3107,VALID,357,VALID,0.277644,
2002-04-27, 00:16:01,VALID,915.54,VALID,0,VALID,97.6516,VALID,0.0169808,VALID,21.301,VALID,357,VALID,0.244792,
2002-04-27, 00:17:00,VALID,915.554,VALID,0,VALID,97.7495,VALID,0,VALID,21.3139,VALID,357,VALID,0.00986842,
2002-04-27, 00:18:00,VALID,915.548,VALID,0,VALID,97.8233,VALID,0,VALID,21.3304,VALID,357,VALID,0,
2002-04-27, 00:19:00,VALID,915.544,VALID,0,VALID,97.9008,VALID,0,VALID,21.3398,VALID,357,VALID,0,
2002-04-27, 00:20:00,VALID,915.553,VALID,0,VALID,97.9555,VALID,0,VALID,21.3527,VALID,357,VALID,0,
2002-04-27, 00:21:00,VALID,915.527,VALID,0,VALID,98.0089,VALID,0,VALID,21.3656,VALID,357,VALID,0,
2002-04-27, 00:22:00,VALID,915.534,VALID,0,VALID,98.0153,VALID,0,VALID,21.3883,VALID,357,VALID,0,
2002-04-27, 00:23:00,VALID,915.523,VALID,0,VALID,97.9975,VALID,-0.0169808,VALID,21.3823,VALID,357,VALID,0,
2002-04-27, 00:24:01,VALID,915.517,VALID,0,VALID,98.0064,VALID,0,VALID,21.3753,VALID,357,VALID,0,
2002-04-27, 00:25:00,VALID,915.499,VALID,0,VALID,98,VALID,0,VALID,21.3815,VALID,357,VALID,0.000205592,
2002-04-27, 00:26:00,VALID,915.484,VALID,0,VALID,98.0153,VALID,0.0339617,VALID,21.3883,VALID,357,VALID,0.00580929,
2002-04-27, 00:27:00,VALID,915.45,VALID,0,VALID,98.0051,VALID,0.0169808,VALID,21.385,VALID,357,VALID,0,
2002-04-27, 00:28:00,VALID,915.439,VALID,0,VALID,98.0077,VALID,0.0169808,VALID,21.3756,VALID,357,VALID,0,
2002-04-27, 00:29:00,VALID,915.424,VALID,0,VALID,98.028,VALID,0,VALID,21.3751,VALID,357,VALID,0,
2002-04-27, 00:30:00,VALID,915.407,VALID,0,VALID,98.0165,VALID,0.0169808,VALID,21.3718,VALID,357,VALID,0,
2002-04-27, 00:31:00,VALID,915.398,VALID,0,VALID,98.0394,VALID,0.0169808,VALID,21.3786,VALID,357,VALID,0,
2002-04-27, 00:32:00,VALID,915.391,VALID,0,VALID,98.028,VALID,0,VALID,21.3691,VALID,357,VALID,0,
2002-04-27, 00:33:00,VALID,915.391,VALID,0,VALID,98.0318,VALID,0,VALID,21.3656,VALID,357,VALID,0,
2002-04-27, 00:34:00,VALID,915.379,VALID,0,VALID,98.0331,VALID,0,VALID,21.3788,VALID,357,VALID,0,
2002-04-27, 00:35:00,VALID,915.373,VALID,0,VALID,97.9962,VALID,0.0169808,VALID,21.3656,VALID,357,VALID,0,
2002-04-27, 00:36:00,VALID,915.366,VALID,0,VALID,97.9542,VALID,0.0169808,VALID,21.3524,VALID,357,VALID,0,
2002-04-27, 00:37:00,VALID,915.349,VALID,0,VALID,97.9136,VALID,0.0339617,VALID,21.3296,VALID,357,VALID,0,
2002-04-27, 00:38:00,VALID,915.339,VALID,0,VALID,97.9352,VALID,0.0169808,VALID,21.3269,VALID,357,VALID,0,
2002-04-27, 00:39:00,VALID,915.339,VALID,0,VALID,97.9631,VALID,0,VALID,21.3371,VALID,357,VALID,0,
2002-04-27, 00:40:01,VALID,915.327,VALID,0,VALID,97.9898,VALID,0.0339617,VALID,21.3433,VALID,357,VALID,0,
2002-04-27, 00:41:00,VALID,915.345,VALID,0,VALID,98.0344,VALID,0.0169808,VALID,21.3664,VALID,357,VALID,0,
2002-04-27, 00:42:00,VALID,915.351,VALID,0,VALID,98.0852,VALID,0.0339617,VALID,21.395,VALID,357,VALID,0,
2002-04-27, 00:43:00,VALID,915.376,VALID,0,VALID,98.1081,VALID,0,VALID,21.398,VALID,357,VALID,0,
2002-04-27, 00:44:00,VALID,915.377,VALID,0,VALID,98.0674,VALID,0,VALID,21.4114,VALID,357,VALID,0,
2002-04-27, 00:45:00,VALID,915.379,VALID,0,VALID,98.0433,VALID,0,VALID,21.4147,VALID,357,VALID,0,
2002-04-27, 00:46:00,VALID,915.391,VALID,0,VALID,98.0471,VALID,0,VALID,21.4214,VALID,357,VALID,0,
2002-04-27, 00:47:00,VALID,915.4,VALID,0,VALID,97.9962,VALID,-0.0169808,VALID,21.4273,VALID,357,VALID,0,
2002-04-27, 00:48:01,VALID,915.404,VALID,0,VALID,98.0051,VALID,0.0169808,VALID,21.4206,VALID,357,VALID,0,
2002-04-27, 00:49:00,VALID,915.431,VALID,0,VALID,98.0077,VALID,0.0339617,VALID,21.437,VALID,357,VALID,0,
2002-04-27, 00:50:00,VALID,915.448,VALID,0,VALID,97.9835,VALID,0.0169808,VALID,21.4335,VALID,357,VALID,0.10597,
2002-04-27, 00:51:00,VALID,915.449,VALID,0,VALID,97.9263,VALID,0.0169808,VALID,21.4244,VALID,357,VALID,0.29387,
2002-04-27, 00:52:01,VALID,915.452,VALID,0,VALID,97.9072,VALID,0.0169808,VALID,21.4244,VALID,276,VALID,0.34976,
2002-04-27, 00:53:00,VALID,915.454,VALID,0,VALID,97.911,VALID,0.0169808,VALID,21.4144,VALID,200,VALID,0.259868,
2002-04-27, 00:54:00,VALID,915.452,VALID,0,VALID,97.9212,VALID,0,VALID,21.4079,VALID,200,VALID,0.0310497,
2002-04-27, 00:55:01,VALID,915.456,VALID,0,VALID,97.9174,VALID,0,VALID,21.4112,VALID,198,VALID,0.267027,
2002-04-27, 00:56:01,VALID,915.448,VALID,0,VALID,97.8779,VALID,0.0169808,VALID,21.4241,VALID,179,VALID,0.611378,
2002-04-27, 00:57:00,VALID,915.458,VALID,0,VALID,97.8055,VALID,0.0509425,VALID,21.385,VALID,168,VALID,0.615954,
2002-04-27, 00:58:00,VALID,915.455,VALID,0,VALID,97.7699,VALID,0.0169808,VALID,21.3589,VALID,164,VALID,0.488982,
2002-04-27, 00:59:00,VALID,915.48,VALID,0,VALID,97.78,VALID,0,VALID,21.3463,VALID,162,VALID,0.232772,
2002-04-27, 01:00:01,VALID,915.483,VALID,0,VALID,97.7889,VALID,0,VALID,21.3266,VALID,162,VALID,0.143429,
2002-04-27, 01:01:00,VALID,915.481,VALID,0,VALID,97.7889,VALID,0.0169808,VALID,21.3274,VALID,162,VALID,0.174548,
2002-04-27, 01:02:00,VALID,915.495,VALID,0,VALID,97.8627,VALID,0.0169808,VALID,21.3207,VALID,162,VALID,0.0356571,
2002-04-27, 01:03:00,VALID,915.489,VALID,0,VALID,97.8767,VALID,0,VALID,21.3201,VALID,162,VALID,0.00160256,
2002-04-27, 01:04:01,VALID,915.474,VALID,0,VALID,97.8856,VALID,0,VALID,21.3209,VALID,162,VALID,0,
2002-04-27, 01:05:00,VALID,915.449,VALID,0,VALID,97.9174,VALID,0,VALID,21.3209,VALID,162,VALID,0,
2002-04-27, 01:06:01,VALID,915.446,VALID,0,VALID,97.9759,VALID,0,VALID,21.3309,VALID,162,VALID,0,
2002-04-27, 01:07:01,VALID,915.429,VALID,0,VALID,97.9606,VALID,0.0169808,VALID,21.3277,VALID,162,VALID,0,
2002-04-27, 01:08:01,VALID,915.41,VALID,0,VALID,97.9657,VALID,0,VALID,21.3244,VALID,162,VALID,0,
2002-04-27, 01:09:01,VALID,915.383,VALID,0,VALID,97.9771,VALID,0.0169808,VALID,21.3172,VALID,162,VALID,0,
2002-04-27, 01:10:00,VALID,915.369,VALID,0,VALID,98.0064,VALID,0,VALID,21.3172,VALID,162,VALID,0,
2002-04-27, 01:11:01,VALID,915.356,VALID,0,VALID,98.0344,VALID,0.0169808,VALID,21.3236,VALID,162,VALID,0,
2002-04-27, 01:12:01,VALID,915.323,VALID,0,VALID,98.0789,VALID,0,VALID,21.3438,VALID,162,VALID,0,
2002-04-27, 01:13:01,VALID,915.295,VALID,0,VALID,98.0801,VALID,-0.0169808,VALID,21.3433,VALID,161,VALID,0,
2002-04-27, 01:14:01,VALID,915.283,VALID,0,VALID,98.0255,VALID,0,VALID,21.3231,VALID,161,VALID,0,
2002-04-27, 01:15:01,VALID,915.254,VALID,0,VALID,98.0153,VALID,0.0339617,VALID,21.3266,VALID,108,VALID,0.140024,
2002-04-27, 01:16:01,VALID,915.248,VALID,0,VALID,97.986,VALID,0,VALID,21.3368,VALID,48,VALID,0.403846,
2002-04-27, 01:17:01,VALID,915.206,VALID,0,VALID,97.9428,VALID,0.0169808,VALID,21.3236,VALID,33,VALID,0.56764,
2002-04-27, 01:18:01,VALID,915.185,VALID,0,VALID,97.9339,VALID,0.0169808,VALID,21.3204,VALID,23,VALID,0.73117,
2002-04-27, 01:19:01,VALID,915.147,VALID,0,VALID,97.8868,VALID,0.0509425,VALID,21.3239,VALID,22,VALID,0.877003,
2002-04-27, 01:20:01,VALID,915.118,VALID,0,VALID,97.8398,VALID,0,VALID,21.311,VALID,22,VALID,0.88742,
2002-04-27, 01:21:01,VALID,915.103,VALID,0,VALID,97.8182,VALID,0.0509425,VALID,21.2846,VALID,21,VALID,0.868832,
2002-04-27, 01:22:01,VALID,915.098,VALID,0,VALID,97.7686,VALID,0.0169808,VALID,21.2692,VALID,29,VALID,0.870793,
2002-04-27, 01:23:01,VALID,915.076,VALID,0,VALID,97.7622,VALID,0.0339617,VALID,21.2237,VALID,38,VALID,0.889423,
2002-04-27, 01:24:01,VALID,915.063,VALID,0,VALID,97.8347,VALID,0.0509425,VALID,21.2043,VALID,38,VALID,0.991186,
2002-04-27, 01:25:01,VALID,915.032,VALID,0,VALID,97.8703,VALID,0,VALID,21.1884,VALID,35,VALID,0.926398,
2002-04-27, 01:26:01,VALID,915.036,VALID,0,VALID,97.9352,VALID,0.0169808,VALID,21.172,VALID,43,VALID,0.77504,
2002-04-27, 01:27:01,VALID,915.024,VALID,0,VALID,97.9975,VALID,0.0169808,VALID,21.1524,VALID,46,VALID,0.462139,
2002-04-27, 01:28:01,VALID,915.019,VALID,0,VALID,98.0064,VALID,0.0169808,VALID,21.1365,VALID,47,VALID,0.0769231,
2002-04-27, 01:29:01,VALID,915.002,VALID,0,VALID,98.0344,VALID,0,VALID,21.1233,VALID,47,VALID,0.0187089,
2002-04-27, 01:30:01,VALID,914.996,VALID,0,VALID,98.0865,VALID,0.0169808,VALID,21.1206,VALID,43,VALID,0.116787,
2002-04-27, 01:31:01,VALID,914.989,VALID,0,VALID,98.1094,VALID,0.0339617,VALID,21.1171,VALID,25,VALID,0.574119,
2002-04-27, 01:32:01,VALID,914.978,VALID,0,VALID,98.1437,VALID,0,VALID,21.1109,VALID,23,VALID,0.431891,
2002-04-27, 01:33:01,VALID,914.957,VALID,0,VALID,98.192,VALID,0.0169808,VALID,21.1006,VALID,12,VALID,0.328742,
2002-04-27, 01:34:00,VALID,914.946,VALID,0,VALID,98.2149,VALID,0,VALID,21.0912,VALID,12,VALID,0.0204327,
2002-04-27, 01:35:00,VALID,914.92,VALID,0,VALID,98.2302,VALID,0.0339617,VALID,21.078,VALID,12,VALID,0.0895433,
2002-04-27, 01:36:00,VALID,914.902,VALID,0,VALID,98.2327,VALID,0,VALID,21.0718,VALID,12,VALID,0.0408654,
2002-04-27, 01:37:00,VALID,914.872,VALID,0,VALID,98.2632,VALID,0,VALID,21.0651,VALID,12,VALID,0.205798,
2002-04-27, 01:38:00,VALID,914.857,VALID,0,VALID,98.2404,VALID,0.0339617,VALID,21.0559,VALID,12,VALID,0.361979,
2002-04-27, 01:39:00,VALID,914.844,VALID,0,VALID,98.2391,VALID,0.0169808,VALID,21.0331,VALID,12,VALID,0.530449,
2002-04-27, 01:40:00,VALID,914.844,VALID,0,VALID,98.2429,VALID,0.0339617,VALID,21.0072,VALID,11,VALID,0.781651,
2002-04-27, 01:41:00,VALID,914.852,VALID,0,VALID,98.3116,VALID,0.0509425,VALID,20.9908,VALID,8,VALID,0.628495,
2002-04-27, 01:42:00,VALID,914.857,VALID,0,VALID,98.3472,VALID,0.0169808,VALID,20.9779,VALID,6,VALID,0.511018,
2002-04-27, 01:43:00,VALID,914.877,VALID,0,VALID,98.3802,VALID,0.0169808,VALID,20.9711,VALID,1,VALID,0.484575,
2002-04-27, 01:44:00,VALID,914.881,VALID,0,VALID,98.4069,VALID,0,VALID,20.9622,VALID,344,VALID,0.512821,
2002-04-27, 01:45:00,VALID,914.901,VALID,0,VALID,98.4692,VALID,0.0169808,VALID,20.9655,VALID,343,VALID,0.490337,
2002-04-27, 01:46:00,VALID,914.907,VALID,0,VALID,98.5048,VALID,0,VALID,20.962,VALID,360,VALID,0.417869,
2002-04-27, 01:47:00,VALID,914.93,VALID,0,VALID,98.515,VALID,0.0679233,VALID,20.9684,VALID,359,VALID,0.298077,
2002-04-27, 01:48:00,VALID,914.953,VALID,0,VALID,98.5328,VALID,0.0679233,VALID,20.9552,VALID,360,VALID,0.565304,
2002-04-27, 01:49:00,VALID,914.976,VALID,0,VALID,98.5646,VALID,0.0169808,VALID,20.9622,VALID,3,VALID,0.465461,
2002-04-27, 01:50:00,VALID,914.98,VALID,0,VALID,98.5735,VALID,0.0339617,VALID,20.949,VALID,359,VALID,0.363181,
2002-04-27, 01:51:00,VALID,914.989,VALID,0,VALID,98.59,VALID,0.0339617,VALID,20.9458,VALID,359,VALID,0.250601,
2002-04-27, 01:52:00,VALID,914.98,VALID,0,VALID,98.6231,VALID,0,VALID,20.9558,VALID,359,VALID,0.297276,
2002-04-27, 01:53:00,VALID,914.972,VALID,0,VALID,98.646,VALID,-0.0849042,VALID,20.9471,VALID,359,VALID,0.278372,
2002-04-27, 01:54:00,VALID,914.967,VALID,0,VALID,98.6524,VALID,-0.101885,VALID,20.9511,VALID,359,VALID,0.171875,
2002-04-27, 01:55:00,VALID,914.969,VALID,0,VALID,98.674,VALID,-0.0849042,VALID,20.9504,VALID,358,VALID,0.291667,
2002-04-27, 01:56:00,VALID,914.974,VALID,0,VALID,98.6918,VALID,-0.0679233,VALID,20.9668,VALID,358,VALID,0.122596,
2002-04-27, 01:57:00,VALID,914.982,VALID,0,VALID,98.7248,VALID,-0.101885,VALID,20.9792,VALID,6,VALID,0.212582,
2002-04-27, 01:58:00,VALID,914.983,VALID,0,VALID,98.7363,VALID,-0.0679233,VALID,20.9924,VALID,20,VALID,0.273838,
2002-04-27, 01:59:00,VALID,914.963,VALID,0,VALID,98.7592,VALID,-0.0679233,VALID,21.0252,VALID,20,VALID,0.0344551,
2002-04-27, 02:00:00,VALID,914.947,VALID,0,VALID,98.7554,VALID,-0.101885,VALID,21.0414,VALID,20,VALID,0,
2002-04-27, 02:01:00,VALID,914.941,VALID,0,VALID,98.7541,VALID,-0.101885,VALID,21.0583,VALID,20,VALID,0,
2002-04-27, 02:02:00,VALID,914.937,VALID,0,VALID,98.7719,VALID,-0.101885,VALID,21.0449,VALID,20,VALID,0,
2002-04-27, 02:03:00,VALID,914.917,VALID,0,VALID,98.7604,VALID,-0.118866,VALID,21.071,VALID,20,VALID,0,
2002-04-27, 02:04:00,VALID,914.92,VALID,0,VALID,98.7693,VALID,-0.101885,VALID,21.067,VALID,20,VALID,0.0290465,
2002-04-27, 02:05:00,VALID,914.928,VALID,0,VALID,98.7579,VALID,-0.0849042,VALID,21.0737,VALID,20,VALID,0,
2002-04-27, 02:06:00,VALID,914.919,VALID,0,VALID,98.7337,VALID,-0.0679233,VALID,21.0775,VALID,20,VALID,0,
2002-04-27, 02:07:00,VALID,914.927,VALID,0,VALID,98.6829,VALID,-0.101885,VALID,21.0707,VALID,20,VALID,0.0663061,
2002-04-27, 02:08:00,VALID,914.917,VALID,0,VALID,98.6066,VALID,-0.0169808,VALID,21.053,VALID,26,VALID,0.208133,
2002-04-27, 02:09:00,VALID,914.898,VALID,0,VALID,98.5583,VALID,-0.0169808,VALID,21.0269,VALID,53,VALID,0.286801,
2002-04-27, 02:10:00,VALID,914.875,VALID,0,VALID,98.5455,VALID,0.0169808,VALID,21.0045,VALID,70,VALID,0.34395,
2002-04-27, 02:11:00,VALID,914.852,VALID,0,VALID,98.5366,VALID,0.0169808,VALID,20.9978,VALID,124,VALID,0.464343,
2002-04-27, 02:12:00,VALID,914.827,VALID,0,VALID,98.5621,VALID,0,VALID,21.001,VALID,138,VALID,0.401843,
2002-04-27, 02:13:00,VALID,914.806,VALID,0,VALID,98.5455,VALID,0,VALID,21.001,VALID,137,VALID,0.427426,
2002-04-27, 02:14:00,VALID,914.799,VALID,0,VALID,98.5125,VALID,0,VALID,21.0075,VALID,128,VALID,0.365184,
2002-04-27, 02:15:00,VALID,914.789,VALID,0,VALID,98.5023,VALID,0.0169808,VALID,21.0013,VALID,111,VALID,0.26883,
2002-04-27, 02:16:00,VALID,914.752,VALID,0,VALID,98.4692,VALID,0,VALID,20.9948,VALID,79,VALID,0.404046,
2002-04-27, 02:17:00,VALID,914.728,VALID,0,VALID,98.4311,VALID,0,VALID,20.9819,VALID,76,VALID,0.299342,
2002-04-27, 02:18:00,VALID,914.697,VALID,0,VALID,98.384,VALID,0,VALID,20.9786,VALID,77,VALID,0.172075,
2002-04-27, 02:19:00,VALID,914.676,VALID,0,VALID,98.3612,VALID,0.0169808,VALID,20.9655,VALID,77,VALID,0,
2002-04-27, 02:20:00,VALID,914.673,VALID,0,VALID,98.3612,VALID,0.0169808,VALID,20.9684,VALID,77,VALID,0,
2002-04-27, 02:21:00,VALID,914.662,VALID,0,VALID,98.3395,VALID,0.0169808,VALID,20.9749,VALID,77,VALID,0,
2002-04-27, 02:22:00,VALID,914.651,VALID,0,VALID,98.3408,VALID,0.0169808,VALID,20.9945,VALID,77,VALID,0.21895,
2002-04-27, 02:23:00,VALID,914.659,VALID,0,VALID,98.3484,VALID,-0.0849042,VALID,21.0053,VALID,123,VALID,0.414663,
2002-04-27, 02:24:00,VALID,914.662,VALID,0,VALID,98.3726,VALID,-0.101885,VALID,21.0195,VALID,223,VALID,0.346154,
2002-04-27, 02:25:00,VALID,914.652,VALID,0,VALID,98.3828,VALID,-0.101885,VALID,21.0292,VALID,223,VALID,0.161595,
2002-04-27, 02:26:00,VALID,914.645,VALID,0,VALID,98.3802,VALID,-0.118866,VALID,21.0155,VALID,223,VALID,0.00240385,
2002-04-27, 02:27:00,VALID,914.627,VALID,0,VALID,98.4082,VALID,-0.101885,VALID,21.022,VALID,223,VALID,0,
2002-04-27, 02:28:00,VALID,914.6,VALID,0,VALID,98.4336,VALID,-0.101885,VALID,21.0284,VALID,223,VALID,0,
2002-04-27, 02:29:00,VALID,914.57,VALID,0,VALID,98.4438,VALID,-0.101885,VALID,21.0352,VALID,223,VALID,0,
2002-04-27, 02:30:00,VALID,914.548,VALID,0,VALID,98.4654,VALID,-0.0849042,VALID,21.0287,VALID,223,VALID,0,
2002-04-27, 02:31:00,VALID,914.522,VALID,0,VALID,98.4807,VALID,-0.101885,VALID,21.0352,VALID,223,VALID,0.0386619,
2002-04-27, 02:32:00,VALID,914.502,VALID,0,VALID,98.4794,VALID,-0.101885,VALID,21.0416,VALID,223,VALID,0.0214343,
2002-04-27, 02:33:00,VALID,914.485,VALID,0,VALID,98.487,VALID,-0.101885,VALID,21.0419,VALID,223,VALID,0,
2002-04-27, 02:34:00,VALID,914.456,VALID,0,VALID,98.5074,VALID,-0.0849042,VALID,21.0215,VALID,223,VALID,0,
2002-04-27, 02:35:00,VALID,914.451,VALID,0,VALID,98.5061,VALID,-0.0679233,VALID,21.0257,VALID,223,VALID,0.314704,
2002-04-27, 02:36:00,VALID,914.434,VALID,0,VALID,98.5074,VALID,-0.101885,VALID,21.019,VALID,223,VALID,0,
2002-04-27, 02:37:00,VALID,914.414,VALID,0,VALID,98.5036,VALID,-0.0679233,VALID,21.0093,VALID,223,VALID,0,
2002-04-27, 02:38:00,VALID,914.407,VALID,0,VALID,98.4629,VALID,0.0169808,VALID,20.9889,VALID,223,VALID,0,
2002-04-27, 02:39:00,VALID,914.399,VALID,0,VALID,98.4324,VALID,0.0509425,VALID,20.9655,VALID,223,VALID,0.166066,
2002-04-27, 02:40:00,VALID,914.408,VALID,0,VALID,98.4324,VALID,0.0339617,VALID,20.9466,VALID,204,VALID,0.260216,
2002-04-27, 02:41:00,VALID,914.41,VALID,0,VALID,98.4006,VALID,0.0849042,VALID,20.9165,VALID,59,VALID,0.538446,
2002-04-27, 02:42:00,VALID,914.415,VALID,0,VALID,98.4031,VALID,0.0509425,VALID,20.8914,VALID,59,VALID,0.569511,
2002-04-27, 02:43:00,VALID,914.428,VALID,0,VALID,98.5061,VALID,0.0169808,VALID,20.8987,VALID,59,VALID,0.439103,
2002-04-27, 02:44:00,VALID,914.434,VALID,0,VALID,98.5405,VALID,-0.0679233,VALID,20.9059,VALID,59,VALID,0.329928,
2002-04-27, 02:45:00,VALID,914.455,VALID,0,VALID,98.5494,VALID,-0.0339617,VALID,20.9054,VALID,65,VALID,0.432771,
2002-04-27, 02:46:00,VALID,914.454,VALID,0,VALID,98.543,VALID,-0.0679233,VALID,20.9089,VALID,85,VALID,0.513822,
2002-04-27, 02:47:00,VALID,914.469,VALID,0,VALID,98.5125,VALID,-0.0679233,VALID,20.8822,VALID,106,VALID,0.506811,
2002-04-27, 02:48:00,VALID,914.46,VALID,0,VALID,98.515,VALID,-0.0679233,VALID,20.8768,VALID,118,VALID,0.411258,
2002-04-27, 02:49:00,VALID,914.445,VALID,0,VALID,98.4781,VALID,-0.0849042,VALID,20.8609,VALID,134,VALID,0.510691,
2002-04-27, 02:50:00,VALID,914.425,VALID,0,VALID,98.4731,VALID,-0.0339617,VALID,20.8313,VALID,133,VALID,0.453125,
2002-04-27, 02:51:00,VALID,914.413,VALID,0,VALID,98.4603,VALID,-0.101885,VALID,20.8119,VALID,130,VALID,0.373397,
2002-04-27, 02:52:00,VALID,914.401,VALID,0,VALID,98.4718,VALID,-0.0679233,VALID,20.806,VALID,135,VALID,0.526843,
2002-04-27, 02:53:00,VALID,914.386,VALID,0,VALID,98.4947,VALID,-0.0339617,VALID,20.7861,VALID,139,VALID,0.697368,
2002-04-27, 02:54:00,VALID,914.386,VALID,0,VALID,98.5023,VALID,-0.0679233,VALID,20.7664,VALID,135,VALID,0.492989,
2002-04-27, 02:55:00,VALID,914.375,VALID,0,VALID,98.5379,VALID,-0.101885,VALID,20.7769,VALID,116,VALID,0.589744,
2002-04-27, 02:56:00,VALID,914.365,VALID,0,VALID,98.5621,VALID,-0.101885,VALID,20.7505,VALID,119,VALID,0.634014,
2002-04-27, 02:57:00,VALID,914.352,VALID,0,VALID,98.5939,VALID,-0.0849042,VALID,20.7476,VALID,103,VALID,0.69264,
2002-04-27, 02:58:00,VALID,914.33,VALID,0,VALID,98.6104,VALID,-0.0509425,VALID,20.7376,VALID,106,VALID,0.642628,
2002-04-27, 02:59:00,VALID,914.303,VALID,0,VALID,98.6066,VALID,-0.101885,VALID,20.7255,VALID,119,VALID,0.742188,
2002-04-27, 03:00:00,VALID,914.285,VALID,0,VALID,98.6193,VALID,-0.0849042,VALID,20.7292,VALID,118,VALID,0.516426,
2002-04-27, 03:01:00,VALID,914.256,VALID,0,VALID,98.6498,VALID,-0.0339617,VALID,20.7053,VALID,125,VALID,0.316201,
2002-04-27, 03:02:00,VALID,914.208,VALID,0,VALID,98.6524,VALID,-0.0849042,VALID,20.7093,VALID,107,VALID,0.196114,
2002-04-27, 03:03:00,VALID,914.176,VALID,0,VALID,98.6485,VALID,-0.0679233,VALID,20.709,VALID,109,VALID,0.335938,
2002-04-27, 03:04:00,VALID,914.148,VALID,0,VALID,98.6371,VALID,-0.0679233,VALID,20.6891,VALID,117,VALID,0.311699,
2002-04-27, 03:05:00,VALID,914.106,VALID,0,VALID,98.6295,VALID,-0.0339617,VALID,20.7063,VALID,117,VALID,0.266653,
2002-04-27, 03:06:00,VALID,914.087,VALID,0,VALID,98.6663,VALID,-0.0679233,VALID,20.6926,VALID,113,VALID,0.329327,
2002-04-27, 03:07:00,VALID,914.089,VALID,0,VALID,98.6587,VALID,-0.0509425,VALID,20.6953,VALID,103,VALID,0.501603,
2002-04-27, 03:08:00,VALID,914.085,VALID,0,VALID,98.6765,VALID,-0.0679233,VALID,20.7085,VALID,86,VALID,0.461138,
2002-04-27, 03:09:00,VALID,914.062,VALID,0,VALID,98.6663,VALID,-0.0849042,VALID,20.722,VALID,86,VALID,0.39926,
2002-04-27, 03:10:00,VALID,914.059,VALID,0,VALID,98.6498,VALID,-0.101885,VALID,20.7317,VALID,86,VALID,0.238181,
2002-04-27, 03:11:00,VALID,914.045,VALID,0,VALID,98.674,VALID,-0.101885,VALID,20.7311,VALID,85,VALID,0.180088,
2002-04-27, 03:12:00,VALID,914.017,VALID,0,VALID,98.6422,VALID,-0.0679233,VALID,20.7481,VALID,85,VALID,0.0641026,
2002-04-27, 03:13:00,VALID,913.983,VALID,0,VALID,98.6409,VALID,-0.0679233,VALID,20.7476,VALID,85,VALID,0,
2002-04-27, 03:14:00,VALID,913.936,VALID,0,VALID,98.6435,VALID,-0.0679233,VALID,20.7538,VALID,85,VALID,0,
2002-04-27, 03:15:00,VALID,913.871,VALID,0,VALID,98.6435,VALID,-0.0679233,VALID,20.7637,VALID,85,VALID,0,
2002-04-27, 03:16:00,VALID,913.814,VALID,0,VALID,98.6358,VALID,-0.0509425,VALID,20.7759,VALID,85,VALID,0.126002,
2002-04-27, 03:17:00,VALID,913.765,VALID,0,VALID,98.6066,VALID,-0.0169808,VALID,20.7799,VALID,285,VALID,0.470806,
2002-04-27, 03:18:00,VALID,913.72,VALID,0,VALID,98.604,VALID,-0.0679233,VALID,20.7866,VALID,272,VALID,0.324519,
2002-04-27, 03:19:00,VALID,913.701,VALID,0,VALID,98.6129,VALID,-0.0169808,VALID,20.7791,VALID,274,VALID,0.19992,
2002-04-27, 03:20:00,VALID,913.691,VALID,0,VALID,98.5964,VALID,-0.0169808,VALID,20.7925,VALID,274,VALID,0.272636,
2002-04-27, 03:21:00,VALID,913.7,VALID,0,VALID,98.5544,VALID,-0.0679233,VALID,20.7796,VALID,275,VALID,0.0832648,
2002-04-27, 03:22:00,VALID,913.725,VALID,0,VALID,98.5773,VALID,-0.0339617,VALID,20.7866,VALID,275,VALID,0.137019,
2002-04-27, 03:23:00,VALID,913.744,VALID,0,VALID,98.6155,VALID,0.0169808,VALID,20.8009,VALID,330,VALID,0.377604,
2002-04-27, 03:24:00,VALID,913.762,VALID,0,VALID,98.6244,VALID,0,VALID,20.8133,VALID,43,VALID,0.578125,
2002-04-27, 03:25:00,VALID,913.815,VALID,0,VALID,98.5913,VALID,0,VALID,20.8367,VALID,56,VALID,0.726974,
2002-04-27, 03:26:00,VALID,913.854,VALID,0,VALID,98.5427,VALID,0,VALID,20.8206,VALID,60,VALID,0.701014,
2002-04-27, 03:27:00,VALID,913.904,VALID,0,VALID,98.4578,VALID,0,VALID,20.8243,VALID,70,VALID,0.792268,
2002-04-27, 03:28:00,VALID,913.952,VALID,0,VALID,98.4247,VALID,0,VALID,20.7883,VALID,91,VALID,0.907853,
2002-04-27, 03:29:00,VALID,913.975,VALID,0,VALID,98.3955,VALID,0,VALID,20.7788,VALID,93,VALID,0.928043,
2002-04-27, 03:30:00,VALID,913.994,VALID,0,VALID,98.3942,VALID,0.0169808,VALID,20.7662,VALID,101,VALID,0.916266,
2002-04-27, 03:31:00,VALID,914.02,VALID,0,VALID,98.4311,VALID,0,VALID,20.7627,VALID,103,VALID,0.632011,
2002-04-27, 03:32:00,VALID,914.035,VALID,0,VALID,98.4692,VALID,-0.0169808,VALID,20.7759,VALID,134,VALID,0.469151,
2002-04-27, 03:33:00,VALID,914.057,VALID,0,VALID,98.4642,VALID,0,VALID,20.7788,VALID,110,VALID,0.53639,
2002-04-27, 03:34:00,VALID,914.076,VALID,0,VALID,98.4527,VALID,0,VALID,20.7885,VALID,112,VALID,0.680088,
2002-04-27, 03:35:00,VALID,914.097,VALID,0,VALID,98.4527,VALID,0,VALID,20.7885,VALID,107,VALID,0.738381,
2002-04-27, 03:36:00,VALID,914.116,VALID,0,VALID,98.4642,VALID,0,VALID,20.8047,VALID,135,VALID,0.909455,
2002-04-27, 03:37:00,VALID,914.16,VALID,0,VALID,98.4298,VALID,0,VALID,20.798,VALID,138,VALID,0.934827,